Princeton, MN

8:41 PM CST on November 14, 2019 (GMT -0600)
Princeton Municipal

Weather History for KPNM - June, 2019

Change the Weather History Date:

Friday, June 14, 2019

  Actual Average Record
Temperature  
Mean Temperature 70 °F -  
Max Temperature 84 °F 72 °F 89 °F (2007)
Min Temperature 55 °F 50 °F 42 °F (1999)
Cooling Degree Days 4    
Growing Degree Days 20 (Base 50)    
Moisture  
Dew Point 54 °F    
Average Humidity 64    
Maximum Humidity 88    
Minimum Humidity 40    
Precipitation  
Precipitation 0.00 in - - ()
Sea Level Pressure  
Sea Level Pressure 29.70 in    
Wind  
Wind Speed 6 mph (SSE)    
Max Wind Speed 10 mph    
Max Gust Speed 17 mph    
Visibility 10 miles    
Events Rain , Thunderstorm    
Averages and records for this station are not official NWS values.
T = Trace of Precipitation, MM = Missing Value Source: NWS Daily Summary

Daily Weather History Graph

Daily Weather History Graph

Search for Another Location

Airport or City:

Astronomy

Jun. 14, 2019 Rise Set
Actual Time 5:24 AM CDT 9:04 PM CDT
Civil Twilight 4:46 AM CDT 9:42 PM CDT
Nautical Twilight 3:56 AM CDT 10:33 PM CDT
Astronomical Twilight 2:47 AM CDT 11:42 PM CDT
Moon 6:19 PM CDT (6/14) 3:53 AM CDT (6/14)
Length of Visible Light 16h 55m
Length of Day
15h 39m
Waxing Gibbous, 92% of the Moon is Illuminated
Jun 14
Waxing Gibbous
Jun 17
Full
Jun 25
Last Quarter
Jul 2
New
Jul 9
First Quarter

Hourly Weather History & Observations

Time (CDT) Temp. Heat Index Dew Point Humidity Pressure Visibility Wind Dir Wind Speed Gust Speed Precip Events Conditions
12:15 AM 57.2 °F - 46.4 °F 67% 29.85 in 10.0 mi ESE 4.6 mph - N/A   Scattered Clouds
12:20 AM 59.0 °F - 44.6 °F 59% 29.85 in 10.0 mi SE 4.6 mph - N/A   Scattered Clouds
12:38 AM 60.8 °F - 42.8 °F 52% 29.84 in 10.0 mi SE 6.9 mph - N/A   Mostly Cloudy
12:56 AM 60.8 °F - 46.4 °F 59% 29.86 in 10.0 mi Calm Calm - N/A Rain Rain
1:15 AM 57.2 °F - 48.2 °F 72% 29.85 in 10.0 mi ENE 3.5 mph - N/A Rain Light Rain
1:16 AM 57.2 °F - 48.2 °F 72% 29.85 in 10.0 mi ENE 3.5 mph - N/A Rain Light Rain
1:35 AM 55.4 °F - 51.8 °F 88% 29.84 in 10.0 mi South 4.6 mph - N/A Rain Light Rain
1:36 AM 55.4 °F - 51.8 °F 88% 29.84 in 10.0 mi South 4.6 mph - N/A Rain Light Rain
1:59 AM 57.2 °F - 48.2 °F 72% 29.81 in 10.0 mi SSE 8.1 mph - N/A   Light Drizzle
2:17 AM 59.0 °F - 44.6 °F 59% 29.80 in 10.0 mi SE 6.9 mph 16.1 mph N/A   Scattered Clouds
2:35 AM 60.8 °F - 44.6 °F 55% 29.80 in 10.0 mi SE 5.8 mph - N/A   Scattered Clouds
2:55 AM 59.0 °F - 46.4 °F 63% 29.81 in 10.0 mi NNE 8.1 mph - N/A   Overcast
2:56 AM 59.0 °F - 46.4 °F 63% 29.81 in 10.0 mi NNE 8.1 mph - N/A   Overcast
3:15 AM 57.2 °F - 48.2 °F 72% 29.79 in 10.0 mi East 6.9 mph - N/A   Overcast
3:20 AM 57.2 °F - 46.4 °F 67% 29.78 in 10.0 mi ENE 6.9 mph - N/A Rain Light Rain
3:38 AM 57.2 °F - 48.2 °F 72% 29.79 in 10.0 mi North 5.8 mph - N/A Thunderstorm Overcast
3:56 AM 55.4 °F - 50.0 °F 82% 29.80 in 10.0 mi North 8.1 mph - N/A Rain Light Rain
4:15 AM 55.4 °F - 50.0 °F 82% 29.78 in 10.0 mi ENE 5.8 mph - N/A Rain Light Rain
4:16 AM 55.4 °F - 50.0 °F 82% 29.78 in 10.0 mi ENE 5.8 mph - N/A Rain Light Rain
4:35 AM 55.4 °F - 50.0 °F 82% 29.78 in 10.0 mi NE 6.9 mph - N/A Rain Light Rain
4:36 AM 55.4 °F - 50.0 °F 82% 29.78 in 10.0 mi NNE 6.9 mph - N/A Rain Light Rain
4:59 AM 55.4 °F - 50.0 °F 82% 29.77 in 10.0 mi East 5.8 mph - N/A   Overcast
5:17 AM 55.4 °F - 51.8 °F 88% 29.78 in 10.0 mi NNE 4.6 mph - N/A Rain Light Rain
5:35 AM 55.4 °F - 51.8 °F 88% 29.76 in 10.0 mi East 4.6 mph - N/A Rain Light Rain
5:36 AM 55.4 °F - 51.8 °F 88% 29.76 in 10.0 mi East 4.6 mph - N/A Rain Light Rain
5:55 AM 55.4 °F - 50.0 °F 82% 29.74 in 10.0 mi ESE 6.9 mph - N/A   Mostly Cloudy
5:56 AM 55.4 °F - 50.0 °F 82% 29.74 in 10.0 mi ESE 6.9 mph - N/A   Mostly Cloudy
6:15 AM 55.4 °F - 50.0 °F 82% 29.75 in 10.0 mi East 5.8 mph - N/A   Scattered Clouds
6:38 AM 55.4 °F - 50.0 °F 82% 29.74 in 10.0 mi East 6.9 mph - N/A   Scattered Clouds
6:56 AM 55.4 °F - 51.8 °F 88% 29.74 in 10.0 mi East 5.8 mph - N/A   Scattered Clouds
7:15 AM 55.4 °F - 50.0 °F 82% 29.74 in 10.0 mi ESE 8.1 mph - N/A   Scattered Clouds
7:16 AM 55.4 °F - 50.0 °F 82% 29.74 in 10.0 mi East 8.1 mph - N/A   Scattered Clouds
7:35 AM 55.4 °F - 50.0 °F 82% 29.73 in 10.0 mi East 5.8 mph - N/A   Scattered Clouds
7:36 AM 55.4 °F - 50.0 °F 82% 29.73 in 10.0 mi East 5.8 mph - N/A   Scattered Clouds
7:59 AM 55.4 °F - 51.8 °F 88% 29.76 in 10.0 mi NE 4.6 mph - N/A   Scattered Clouds
8:17 AM 57.2 °F - 51.8 °F 82% 29.75 in 10.0 mi East 4.6 mph - N/A Rain Light Rain
8:35 AM 57.2 °F - 51.8 °F 82% 29.74 in 10.0 mi East 6.9 mph - N/A   Scattered Clouds
8:36 AM 57.2 °F - 51.8 °F 82% 29.74 in 10.0 mi East 6.9 mph - N/A   Scattered Clouds
8:55 AM 57.2 °F - 51.8 °F 82% 29.73 in 10.0 mi ESE 6.9 mph - N/A Thunderstorm Clear
8:56 AM 57.2 °F - 51.8 °F 82% 29.73 in 10.0 mi ESE 6.9 mph - N/A Thunderstorm Clear
9:15 AM 60.8 °F - 53.6 °F 77% 29.72 in 10.0 mi ESE 9.2 mph - N/A   Clear
9:20 AM 62.6 °F - 53.6 °F 72% 29.72 in 10.0 mi East 10.4 mph - N/A   Clear
9:38 AM 64.4 °F - 53.6 °F 68% 29.71 in 10.0 mi ESE 9.2 mph - N/A   Clear
9:56 AM 64.4 °F - 53.6 °F 68% 29.71 in 10.0 mi ESE 5.8 mph - N/A   Clear
10:15 AM 68.0 °F - 55.4 °F 64% 29.70 in 10.0 mi SE 5.8 mph - N/A   Clear
10:16 AM 68.0 °F - 55.4 °F 64% 29.70 in 10.0 mi SE 6.9 mph - N/A   Clear
10:35 AM 69.8 °F - 55.4 °F 60% 29.69 in 10.0 mi South 9.2 mph - N/A   Scattered Clouds
10:59 AM 71.6 °F - 57.2 °F 60% 29.68 in 10.0 mi SSE 5.8 mph - N/A   Clear
11:17 AM 73.4 °F - 57.2 °F 57% 29.67 in 10.0 mi South 6.9 mph - N/A   Clear
11:35 AM 73.4 °F - 57.2 °F 57% 29.66 in 10.0 mi South 8.1 mph - N/A   Clear
11:36 AM 75.2 °F - 57.2 °F 53% 29.66 in 10.0 mi South 8.1 mph - N/A   Clear
11:55 AM 73.4 °F - 57.2 °F 57% 29.65 in 10.0 mi South 8.1 mph - N/A   Clear
11:56 AM 73.4 °F - 57.2 °F 57% 29.65 in 10.0 mi South 8.1 mph - N/A   Clear
12:15 PM 75.2 °F - 59.0 °F 57% 29.64 in 10.0 mi South 5.8 mph - N/A   Clear
12:38 PM 77.0 °F - 57.2 °F 50% 29.64 in 10.0 mi SSW 8.1 mph 17.3 mph N/A   Clear
12:56 PM 77.0 °F - 57.2 °F 50% 29.63 in 10.0 mi SSW 6.9 mph - N/A   Clear
1:15 PM 78.8 °F - 57.2 °F 47% 29.63 in 10.0 mi SW 8.1 mph - N/A   Clear
1:16 PM 78.8 °F - 57.2 °F 47% 29.63 in 10.0 mi SW 8.1 mph - N/A   Clear
1:35 PM 77.0 °F - 57.2 °F 50% 29.63 in 10.0 mi SW 5.8 mph - N/A   Scattered Clouds
1:59 PM 78.8 °F - 57.2 °F 47% 29.63 in 10.0 mi SW 5.8 mph - N/A   Scattered Clouds
2:17 PM 78.8 °F - 57.2 °F 47% 29.63 in 10.0 mi SW 8.1 mph - N/A   Clear
2:35 PM 78.8 °F - 57.2 °F 47% 29.63 in 10.0 mi WSW 9.2 mph - N/A   Clear
2:36 PM 78.8 °F - 57.2 °F 47% 29.63 in 10.0 mi WSW 8.1 mph - N/A   Clear
2:59 PM 80.6 °F 81.5 °F 60.8 °F 51% 29.62 in 10.0 mi SW 6.9 mph - N/A   Clear
3:17 PM 80.6 °F 80.8 °F 57.2 °F 45% 29.62 in 10.0 mi WSW 6.9 mph - N/A   Clear
3:35 PM 80.6 °F 81.1 °F 59.0 °F 48% 29.61 in 10.0 mi WSW 8.1 mph - N/A   Clear
3:55 PM 82.4 °F 82.9 °F 60.8 °F 48% 29.61 in 10.0 mi WSW 8.1 mph - N/A   Clear
4:15 PM 84.2 °F 84.4 °F 60.8 °F 45% 29.61 in 10.0 mi SW 5.8 mph - N/A   Clear
4:20 PM 82.4 °F 82.9 °F 60.8 °F 48% 29.61 in 10.0 mi SSW 6.9 mph - N/A   Clear
4:38 PM 82.4 °F 82.5 °F 59.0 °F 45% 29.61 in 10.0 mi WSW 6.9 mph - N/A   Clear
4:55 PM 80.6 °F 81.1 °F 59.0 °F 48% 29.61 in 10.0 mi WSW 9.2 mph - N/A   Clear
5:15 PM 82.4 °F 82.5 °F 59.0 °F 45% 29.60 in 10.0 mi WSW 8.1 mph - N/A   Clear
5:16 PM 82.4 °F 82.5 °F 59.0 °F 45% 29.60 in 10.0 mi WSW 8.1 mph - N/A   Clear
5:35 PM 82.4 °F 82.5 °F 59.0 °F 45% 29.60 in 10.0 mi West 5.8 mph - N/A   Clear
5:59 PM 80.6 °F 80.8 °F 57.2 °F 45% 29.59 in 10.0 mi West 3.5 mph - N/A   Clear
6:17 PM 82.4 °F 82.0 °F 57.2 °F 42% 29.59 in 10.0 mi SSW 3.5 mph - N/A   Clear
6:35 PM 84.2 °F 83.5 °F 57.2 °F 40% 29.59 in 10.0 mi West 5.8 mph - N/A   Clear
6:36 PM 84.2 °F 83.5 °F 57.2 °F 40% 29.59 in 10.0 mi West 5.8 mph - N/A   Clear
6:55 PM 82.4 °F 82.5 °F 59.0 °F 45% 29.59 in 10.0 mi West 6.9 mph - N/A   Clear
7:15 PM 82.4 °F 82.5 °F 59.0 °F 45% 29.59 in 10.0 mi West 3.5 mph - N/A   Clear
7:20 PM 82.4 °F 82.9 °F 60.8 °F 48% 29.59 in 10.0 mi NNW 4.6 mph - N/A   Clear
7:38 PM 80.6 °F 81.5 °F 60.8 °F 51% 29.60 in 10.0 mi NW 5.8 mph - N/A   Clear
7:56 PM 78.8 °F - 60.8 °F 54% 29.60 in 10.0 mi NW 3.5 mph - N/A   Clear
8:15 PM 75.2 °F - 62.6 °F 65% 29.60 in 10.0 mi North 3.5 mph - N/A   Clear
8:16 PM 75.2 °F - 62.6 °F 65% 29.60 in 10.0 mi North 3.5 mph - N/A   Clear
8:35 PM 73.4 °F - 62.6 °F 69% 29.60 in 10.0 mi Calm Calm - N/A   Clear
8:58 PM 75.2 °F - 62.6 °F 65% 29.61 in 10.0 mi Calm Calm - N/A   Clear
9:17 PM 73.4 °F - 62.6 °F 69% 29.61 in 10.0 mi Calm Calm - N/A   Clear
9:35 PM 69.8 °F - 62.6 °F 78% 29.62 in 10.0 mi Calm Calm - N/A   Clear